,,PA_Meas_PMT16A,,PR_Meas_QMR101_102,,RH_Meas_QMH101,,SR_Meas_QMS101,,TA_Meas_QMH101,,GenWind,,GenWind,
time,status,PA,status,PR,status,RH,status,SR,status,TA,status,DirAvg,status,SpdAvg,
2010-04-24, 00:00:05,VALID,918.932,VALID,0,VALID,97.6178,VALID,0.107441,VALID,20.0733,VALID,355,VALID,0.740625,
2010-04-24, 00:01:05,VALID,918.926,VALID,0,VALID,97.6178,VALID,0,VALID,20.0343,VALID,355,VALID,0.310937,
2010-04-24, 00:02:05,VALID,918.954,VALID,0,VALID,97.6255,VALID,0,VALID,20.0148,VALID,355,VALID,0.454297,
2010-04-24, 00:03:05,VALID,918.917,VALID,0,VALID,97.6331,VALID,0,VALID,20.0148,VALID,355,VALID,0.182031,
2010-04-24, 00:04:05,VALID,918.885,VALID,0,VALID,97.6255,VALID,0,VALID,20.0148,VALID,355,VALID,0.383594,
2010-04-24, 00:05:05,VALID,918.883,VALID,0,VALID,97.6407,VALID,0,VALID,20.0148,VALID,355,VALID,0.630859,
2010-04-24, 00:06:05,VALID,918.881,VALID,0,VALID,97.6331,VALID,0,VALID,19.9953,VALID,355,VALID,0.725391,
2010-04-24, 00:07:05,VALID,918.87,VALID,0,VALID,97.6407,VALID,0,VALID,20.0163,VALID,356,VALID,0.580469,
2010-04-24, 00:08:05,VALID,918.85,VALID,0,VALID,97.6483,VALID,0,VALID,19.9953,VALID,356,VALID,0.753125,
2010-04-24, 00:09:05,VALID,918.87,VALID,0,VALID,97.6331,VALID,0,VALID,19.9758,VALID,356,VALID,1.22891,
2010-04-24, 00:10:05,VALID,918.848,VALID,0,VALID,97.6483,VALID,0,VALID,19.9563,VALID,357,VALID,0.869922,
2010-04-24, 00:11:05,VALID,918.847,VALID,0,VALID,97.6407,VALID,0,VALID,19.9563,VALID,128,VALID,0.861328,
2010-04-24, 00:12:05,VALID,918.842,VALID,0,VALID,97.6331,VALID,0,VALID,19.9563,VALID,128,VALID,0.684375,
2010-04-24, 00:13:05,VALID,918.862,VALID,0,VALID,97.6331,VALID,0,VALID,19.9758,VALID,128,VALID,0.567187,
2010-04-24, 00:14:05,VALID,918.854,VALID,0,VALID,97.6407,VALID,0,VALID,19.9368,VALID,128,VALID,0.853906,
2010-04-24, 00:15:05,VALID,918.844,VALID,0,VALID,97.6407,VALID,0,VALID,19.9173,VALID,128,VALID,0.903516,
2010-04-24, 00:16:05,VALID,918.822,VALID,0,VALID,97.6407,VALID,0,VALID,19.8978,VALID,128,VALID,0.632813,
2010-04-24, 00:17:05,VALID,918.818,VALID,0,VALID,97.6407,VALID,0,VALID,19.8978,VALID,128,VALID,0.412109,
2010-04-24, 00:18:05,VALID,918.805,VALID,0,VALID,97.6331,VALID,0,VALID,19.8993,VALID,128,VALID,0.819531,
2010-04-24, 00:19:05,VALID,918.815,VALID,0,VALID,97.6407,VALID,0,VALID,19.8588,VALID,128,VALID,0.557813,
2010-04-24, 00:20:05,VALID,918.829,VALID,0,VALID,97.6255,VALID,0,VALID,19.8588,VALID,128,VALID,0.583203,
2010-04-24, 00:21:05,VALID,918.81,VALID,0,VALID,97.6407,VALID,0,VALID,19.8603,VALID,128,VALID,0.692187,
2010-04-24, 00:22:05,VALID,918.802,VALID,0,VALID,97.6331,VALID,0,VALID,19.8378,VALID,128,VALID,0.769531,
2010-04-24, 00:23:05,VALID,918.787,VALID,0,VALID,97.6483,VALID,0,VALID,19.8393,VALID,128,VALID,0.635547,
2010-04-24, 00:24:05,VALID,918.745,VALID,0,VALID,97.6407,VALID,0,VALID,19.8588,VALID,128,VALID,0.544922,
2010-04-24, 00:25:05,VALID,918.728,VALID,0,VALID,97.6407,VALID,0,VALID,19.8393,VALID,128,VALID,0.580469,
2010-04-24, 00:26:05,VALID,918.706,VALID,0,VALID,97.6483,VALID,0,VALID,19.8588,VALID,128,VALID,0.329297,
2010-04-24, 00:27:05,VALID,918.688,VALID,0,VALID,97.6483,VALID,0,VALID,19.8588,VALID,128,VALID,0.603906,
2010-04-24, 00:28:05,VALID,918.691,VALID,0,VALID,97.656,VALID,0,VALID,19.8378,VALID,128,VALID,0.627734,
2010-04-24, 00:29:05,VALID,918.663,VALID,0,VALID,97.656,VALID,0,VALID,19.8393,VALID,128,VALID,0.557813,
2010-04-24, 00:30:05,VALID,918.642,VALID,0,VALID,97.6483,VALID,0,VALID,19.8393,VALID,128,VALID,0.734375,
2010-04-24, 00:31:05,VALID,918.627,VALID,0,VALID,97.6483,VALID,0,VALID,19.8198,VALID,128,VALID,0.701172,
2010-04-24, 00:32:05,VALID,918.603,VALID,0,VALID,97.6331,VALID,0,VALID,19.8198,VALID,128,VALID,0.700781,
2010-04-24, 00:33:05,VALID,918.629,VALID,0,VALID,97.6331,VALID,0,VALID,19.8393,VALID,128,VALID,0.808984,
2010-04-24, 00:34:05,VALID,918.606,VALID,0,VALID,97.6712,VALID,0,VALID,19.8393,VALID,128,VALID,0.667188,
2010-04-24, 00:35:05,VALID,918.61,VALID,0,VALID,97.6636,VALID,0,VALID,19.8603,VALID,124,VALID,0.563281,
2010-04-24, 00:36:05,VALID,918.596,VALID,0.2,VALID,97.6407,VALID,0,VALID,19.8603,VALID,123,VALID,0.797656,
2010-04-24, 00:37:05,VALID,918.562,VALID,0,VALID,97.6483,VALID,0,VALID,19.8588,VALID,123,VALID,0.745313,
2010-04-24, 00:38:05,VALID,918.553,VALID,0,VALID,97.656,VALID,0,VALID,19.8588,VALID,123,VALID,0.790234,
2010-04-24, 00:39:05,VALID,918.52,VALID,0,VALID,97.6483,VALID,0,VALID,19.8783,VALID,124,VALID,0.951563,
2010-04-24, 00:40:05,VALID,918.495,VALID,0,VALID,97.6712,VALID,0,VALID,19.8978,VALID,123,VALID,0.960547,
2010-04-24, 00:41:05,VALID,918.5,VALID,0,VALID,97.6636,VALID,0,VALID,19.8783,VALID,123,VALID,0.869922,
2010-04-24, 00:42:05,VALID,918.482,VALID,0,VALID,97.6331,VALID,0,VALID,19.8978,VALID,123,VALID,0.873047,
2010-04-24, 00:43:05,VALID,918.454,VALID,0,VALID,97.6483,VALID,0,VALID,19.9173,VALID,123,VALID,0.897656,
2010-04-24, 00:44:05,VALID,918.471,VALID,0,VALID,97.6712,VALID,0,VALID,19.8783,VALID,123,VALID,0.251563,
2010-04-24, 00:45:05,VALID,918.438,VALID,0,VALID,97.6712,VALID,0,VALID,19.8978,VALID,123,VALID,0.248828,
2010-04-24, 00:46:04,VALID,918.439,VALID,0,VALID,97.6788,VALID,0,VALID,19.8978,VALID,123,VALID,0.5125,
2010-04-24, 00:47:04,VALID,918.439,VALID,0,VALID,97.656,VALID,0,VALID,19.9173,VALID,123,VALID,0.292969,
2010-04-24, 00:48:04,VALID,918.401,VALID,0,VALID,97.6788,VALID,0,VALID,19.8978,VALID,123,VALID,0.373828,
2010-04-24, 00:49:04,VALID,918.382,VALID,0,VALID,97.656,VALID,0,VALID,19.9173,VALID,123,VALID,0.246094,
2010-04-24, 00:50:04,VALID,918.36,VALID,0,VALID,97.6636,VALID,0,VALID,19.9368,VALID,123,VALID,0.636328,
2010-04-24, 00:51:04,VALID,918.315,VALID,0,VALID,97.6788,VALID,0,VALID,19.9173,VALID,123,VALID,0.752734,
2010-04-24, 00:52:04,VALID,918.318,VALID,0,VALID,97.6636,VALID,0,VALID,19.9383,VALID,123,VALID,0.617578,
2010-04-24, 00:53:04,VALID,918.322,VALID,0,VALID,97.6636,VALID,0,VALID,19.9188,VALID,124,VALID,0.582812,
2010-04-24, 00:54:04,VALID,918.28,VALID,0,VALID,97.6788,VALID,0,VALID,19.8978,VALID,123,VALID,0.455078,
2010-04-24, 00:55:04,VALID,918.265,VALID,0,VALID,97.656,VALID,0,VALID,19.8978,VALID,123,VALID,0.544141,
2010-04-24, 00:56:04,VALID,918.243,VALID,0,VALID,97.6636,VALID,0,VALID,19.9188,VALID,123,VALID,0.471875,
2010-04-24, 00:57:04,VALID,918.207,VALID,0,VALID,97.656,VALID,0,VALID,19.8783,VALID,123,VALID,0.748438,
2010-04-24, 00:58:04,VALID,918.19,VALID,0,VALID,97.6788,VALID,0,VALID,19.8783,VALID,123,VALID,1.06484,
2010-04-24, 00:59:04,VALID,918.192,VALID,0,VALID,97.6712,VALID,0,VALID,19.8783,VALID,123,VALID,0.687109,
2010-04-24, 01:00:04,VALID,918.136,VALID,0,VALID,97.6636,VALID,0,VALID,19.8798,VALID,123,VALID,0.921094,
2010-04-24, 01:01:04,VALID,918.158,VALID,0,VALID,97.656,VALID,0.107441,VALID,19.8588,VALID,124,VALID,0.7875,
2010-04-24, 01:02:04,VALID,918.118,VALID,0,VALID,97.6636,VALID,0,VALID,19.8603,VALID,125,VALID,0.757422,
2010-04-24, 01:03:04,VALID,918.114,VALID,0,VALID,97.6636,VALID,0,VALID,19.8603,VALID,125,VALID,0.589453,
2010-04-24, 01:04:04,VALID,918.092,VALID,0,VALID,97.6941,VALID,0,VALID,19.8393,VALID,125,VALID,0.524609,
2010-04-24, 01:05:04,VALID,918.061,VALID,0,VALID,97.6865,VALID,0,VALID,19.8393,VALID,125,VALID,0.769922,
2010-04-24, 01:06:04,VALID,918.054,VALID,0,VALID,97.6636,VALID,0,VALID,19.8408,VALID,125,VALID,0.768359,
2010-04-24, 01:07:04,VALID,918.044,VALID,0,VALID,97.656,VALID,0,VALID,19.8408,VALID,125,VALID,0.568359,
2010-04-24, 01:08:04,VALID,918.034,VALID,0,VALID,97.7017,VALID,0,VALID,19.8198,VALID,125,VALID,0.707031,
2010-04-24, 01:09:04,VALID,918.02,VALID,0,VALID,97.6788,VALID,0,VALID,19.8213,VALID,125,VALID,0.790625,
2010-04-24, 01:10:04,VALID,917.994,VALID,0,VALID,97.6788,VALID,0,VALID,19.8003,VALID,125,VALID,0.839844,
2010-04-24, 01:11:04,VALID,917.966,VALID,0,VALID,97.6865,VALID,0,VALID,19.8018,VALID,125,VALID,0.852734,
2010-04-24, 01:12:04,VALID,917.937,VALID,0,VALID,97.6712,VALID,0,VALID,19.8018,VALID,125,VALID,0.571875,
2010-04-24, 01:13:04,VALID,917.927,VALID,0,VALID,97.6788,VALID,0,VALID,19.7823,VALID,125,VALID,0.6375,
2010-04-24, 01:14:04,VALID,917.938,VALID,0,VALID,97.6712,VALID,0,VALID,19.7613,VALID,125,VALID,0.612891,
2010-04-24, 01:15:04,VALID,917.917,VALID,0,VALID,97.6941,VALID,0,VALID,19.7613,VALID,125,VALID,0.561719,
2010-04-24, 01:16:04,VALID,917.898,VALID,0,VALID,97.7017,VALID,0,VALID,19.7418,VALID,125,VALID,0.445313,
2010-04-24, 01:17:04,VALID,917.897,VALID,0,VALID,97.6788,VALID,0,VALID,19.7418,VALID,125,VALID,0.15,
2010-04-24, 01:18:04,VALID,917.9,VALID,0,VALID,97.6865,VALID,0,VALID,19.7433,VALID,125,VALID,0.498047,
2010-04-24, 01:19:04,VALID,917.873,VALID,0,VALID,97.7017,VALID,0,VALID,19.7223,VALID,125,VALID,0.526172,
2010-04-24, 01:20:04,VALID,917.844,VALID,0,VALID,97.6865,VALID,0,VALID,19.7028,VALID,125,VALID,0.621875,
2010-04-24, 01:21:04,VALID,917.858,VALID,0,VALID,97.6865,VALID,0,VALID,19.6833,VALID,125,VALID,0.844922,
2010-04-24, 01:22:04,VALID,917.818,VALID,0,VALID,97.6865,VALID,0,VALID,19.7043,VALID,125,VALID,0.845312,
2010-04-24, 01:23:04,VALID,917.845,VALID,0,VALID,97.7017,VALID,0,VALID,19.6848,VALID,125,VALID,0.937891,
2010-04-24, 01:24:04,VALID,917.822,VALID,0,VALID,97.7017,VALID,0,VALID,19.6833,VALID,125,VALID,0.980078,
2010-04-24, 01:25:04,VALID,917.754,VALID,0,VALID,97.6941,VALID,0,VALID,19.6833,VALID,125,VALID,1.01094,
2010-04-24, 01:26:04,VALID,917.766,VALID,0,VALID,97.7017,VALID,0.107441,VALID,19.6623,VALID,124,VALID,0.722266,
2010-04-24, 01:27:04,VALID,917.748,VALID,0,VALID,97.7017,VALID,0.107441,VALID,19.6428,VALID,124,VALID,0.514844,
2010-04-24, 01:28:04,VALID,917.758,VALID,0,VALID,97.6941,VALID,0,VALID,19.6638,VALID,124,VALID,0.816016,
2010-04-24, 01:29:04,VALID,917.72,VALID,0,VALID,97.6941,VALID,0.107441,VALID,19.6638,VALID,109,VALID,0.788281,
2010-04-24, 01:30:04,VALID,917.722,VALID,0,VALID,97.7169,VALID,0.107441,VALID,19.6428,VALID,110,VALID,0.717578,
2010-04-24, 01:31:04,VALID,917.699,VALID,0,VALID,97.7246,VALID,0,VALID,19.6458,VALID,109,VALID,0.586719,
2010-04-24, 01:32:04,VALID,917.663,VALID,0,VALID,97.7093,VALID,0,VALID,19.6248,VALID,109,VALID,0.541406,
2010-04-24, 01:33:04,VALID,917.657,VALID,0,VALID,97.7169,VALID,0,VALID,19.6458,VALID,110,VALID,0.342578,
2010-04-24, 01:34:04,VALID,917.64,VALID,0,VALID,97.7017,VALID,0,VALID,19.6053,VALID,110,VALID,0.428516,
2010-04-24, 01:35:04,VALID,917.644,VALID,0,VALID,97.7017,VALID,0,VALID,19.6053,VALID,109,VALID,0.596484,
2010-04-24, 01:36:04,VALID,917.63,VALID,0,VALID,97.7169,VALID,0,VALID,19.6263,VALID,109,VALID,0.438672,
2010-04-24, 01:37:04,VALID,917.623,VALID,0,VALID,97.7017,VALID,0,VALID,19.6263,VALID,109,VALID,0.611328,
2010-04-24, 01:38:04,VALID,917.606,VALID,0,VALID,97.7246,VALID,0,VALID,19.5858,VALID,109,VALID,0.266797,
2010-04-24, 01:39:04,VALID,917.608,VALID,0,VALID,97.7246,VALID,0,VALID,19.6263,VALID,109,VALID,0,
2010-04-24, 01:40:04,VALID,917.635,VALID,0,VALID,97.7017,VALID,0,VALID,19.6263,VALID,109,VALID,0,
2010-04-24, 01:41:04,VALID,917.612,VALID,0,VALID,97.7093,VALID,0,VALID,19.6653,VALID,109,VALID,0,
2010-04-24, 01:42:04,VALID,917.586,VALID,0,VALID,97.7169,VALID,0,VALID,19.6653,VALID,109,VALID,0,
2010-04-24, 01:43:04,VALID,917.596,VALID,0,VALID,97.7169,VALID,0,VALID,19.6848,VALID,109,VALID,0.289844,
2010-04-24, 01:44:04,VALID,917.587,VALID,0,VALID,97.6941,VALID,0,VALID,19.6653,VALID,109,VALID,0.422266,
2010-04-24, 01:45:04,VALID,917.573,VALID,0,VALID,97.7093,VALID,0,VALID,19.6833,VALID,109,VALID,0.333203,
2010-04-24, 01:46:04,VALID,917.548,VALID,0,VALID,97.7017,VALID,0,VALID,19.7238,VALID,109,VALID,0.276563,
2010-04-24, 01:47:04,VALID,917.554,VALID,0,VALID,97.7093,VALID,0,VALID,19.7043,VALID,109,VALID,0.242188,
2010-04-24, 01:48:04,VALID,917.553,VALID,0,VALID,97.7017,VALID,0,VALID,19.7043,VALID,110,VALID,0.0996094,
2010-04-24, 01:49:04,VALID,917.532,VALID,0,VALID,97.7093,VALID,0,VALID,19.7238,VALID,109,VALID,0,
2010-04-24, 01:50:04,VALID,917.497,VALID,0,VALID,97.6865,VALID,0,VALID,19.7433,VALID,109,VALID,0,
2010-04-24, 01:51:04,VALID,917.507,VALID,0,VALID,97.7017,VALID,0,VALID,19.7433,VALID,109,VALID,0.204688,
2010-04-24, 01:52:04,VALID,917.503,VALID,0,VALID,97.7017,VALID,0,VALID,19.7433,VALID,109,VALID,0.178516,
2010-04-24, 01:53:04,VALID,917.484,VALID,0,VALID,97.7169,VALID,0,VALID,19.7433,VALID,109,VALID,0.455469,
2010-04-24, 01:54:04,VALID,917.483,VALID,0,VALID,97.6941,VALID,0,VALID,19.7433,VALID,109,VALID,0.472266,
2010-04-24, 01:55:04,VALID,917.466,VALID,0,VALID,97.7246,VALID,0,VALID,19.7418,VALID,109,VALID,0.414844,
2010-04-24, 01:56:04,VALID,917.461,VALID,0,VALID,97.7169,VALID,0,VALID,19.7223,VALID,109,VALID,0.605469,
2010-04-24, 01:57:04,VALID,917.445,VALID,0,VALID,97.6865,VALID,0,VALID,19.7433,VALID,110,VALID,0.271094,
2010-04-24, 01:58:04,VALID,917.454,VALID,0,VALID,97.6941,VALID,0,VALID,19.7433,VALID,109,VALID,0.360938,
2010-04-24, 01:59:04,VALID,917.441,VALID,0,VALID,97.7169,VALID,0,VALID,19.7238,VALID,109,VALID,0.318359,
2010-04-24, 02:00:04,VALID,917.393,VALID,0,VALID,97.7169,VALID,0,VALID,19.7223,VALID,109,VALID,0.458984,
2010-04-24, 02:01:04,VALID,917.391,VALID,0,VALID,97.7017,VALID,0,VALID,19.7433,VALID,109,VALID,0.488281,
2010-04-24, 02:02:04,VALID,917.401,VALID,0,VALID,97.6941,VALID,0,VALID,19.7418,VALID,110,VALID,0.59375,
2010-04-24, 02:03:04,VALID,917.394,VALID,0,VALID,97.7093,VALID,0,VALID,19.7628,VALID,109,VALID,0.553906,
2010-04-24, 02:04:04,VALID,917.396,VALID,0,VALID,97.7017,VALID,0,VALID,19.7628,VALID,109,VALID,0.603125,
2010-04-24, 02:05:04,VALID,917.396,VALID,0,VALID,97.7017,VALID,0,VALID,19.7238,VALID,110,VALID,0.495703,
2010-04-24, 02:06:04,VALID,917.388,VALID,0,VALID,97.7093,VALID,0,VALID,19.7043,VALID,109,VALID,0.441797,
2010-04-24, 02:07:04,VALID,917.401,VALID,0,VALID,97.6941,VALID,0,VALID,19.6848,VALID,109,VALID,0.487891,
2010-04-24, 02:08:04,VALID,917.368,VALID,0,VALID,97.7093,VALID,0,VALID,19.6458,VALID,110,VALID,0.382813,
2010-04-24, 02:09:04,VALID,917.373,VALID,0,VALID,97.7169,VALID,0,VALID,19.6458,VALID,109,VALID,0.278516,
2010-04-24, 02:10:04,VALID,917.385,VALID,0,VALID,97.6941,VALID,0,VALID,19.6263,VALID,109,VALID,0.404687,
2010-04-24, 02:11:04,VALID,917.368,VALID,0,VALID,97.7398,VALID,0,VALID,19.6263,VALID,109,VALID,0.415234,
2010-04-24, 02:12:04,VALID,917.37,VALID,0,VALID,97.7093,VALID,0,VALID,19.5873,VALID,109,VALID,0.608984,
2010-04-24, 02:13:04,VALID,917.338,VALID,0,VALID,97.7093,VALID,0,VALID,19.5663,VALID,109,VALID,0.878516,
2010-04-24, 02:14:04,VALID,917.317,VALID,0,VALID,97.6941,VALID,0,VALID,19.5678,VALID,109,VALID,0.790625,
2010-04-24, 02:15:04,VALID,917.321,VALID,0,VALID,97.7322,VALID,0,VALID,19.5678,VALID,109,VALID,0.962891,
2010-04-24, 02:16:04,VALID,917.315,VALID,0,VALID,97.7246,VALID,0.107441,VALID,19.5258,VALID,109,VALID,0.951563,
2010-04-24, 02:17:04,VALID,917.291,VALID,0,VALID,97.7322,VALID,0,VALID,19.5468,VALID,109,VALID,1.13516,
2010-04-24, 02:18:04,VALID,917.298,VALID,0,VALID,97.7169,VALID,0,VALID,19.5273,VALID,109,VALID,0.859375,
2010-04-24, 02:19:04,VALID,917.252,VALID,0,VALID,97.7093,VALID,0,VALID,19.5063,VALID,109,VALID,1.17383,
2010-04-24, 02:20:04,VALID,917.264,VALID,0,VALID,97.7474,VALID,0,VALID,19.5078,VALID,109,VALID,0.810938,
2010-04-24, 02:21:04,VALID,917.243,VALID,0,VALID,97.7474,VALID,0,VALID,19.4883,VALID,108,VALID,0.870313,
2010-04-24, 02:22:04,VALID,917.242,VALID,0,VALID,97.7246,VALID,0,VALID,19.4688,VALID,108,VALID,0.730078,
2010-04-24, 02:23:04,VALID,917.224,VALID,0,VALID,97.7551,VALID,0,VALID,19.4493,VALID,108,VALID,1.02344,
2010-04-24, 02:24:04,VALID,917.204,VALID,0,VALID,97.7398,VALID,0,VALID,19.4103,VALID,108,VALID,0.914453,
2010-04-24, 02:25:04,VALID,917.203,VALID,0,VALID,97.7398,VALID,0,VALID,19.4103,VALID,108,VALID,0.778906,
2010-04-24, 02:26:04,VALID,917.203,VALID,0,VALID,97.7474,VALID,0,VALID,19.3713,VALID,108,VALID,0.876562,
2010-04-24, 02:27:04,VALID,917.186,VALID,0,VALID,97.7474,VALID,0,VALID,19.3308,VALID,108,VALID,0.829297,
2010-04-24, 02:28:04,VALID,917.17,VALID,0,VALID,97.7398,VALID,0,VALID,19.3518,VALID,108,VALID,0.601953,
2010-04-24, 02:29:04,VALID,917.193,VALID,0,VALID,97.7474,VALID,0,VALID,19.3113,VALID,108,VALID,0.530469,
2010-04-24, 02:30:04,VALID,917.18,VALID,0,VALID,97.7322,VALID,0.107441,VALID,19.3113,VALID,108,VALID,0.435547,
2010-04-24, 02:31:04,VALID,917.189,VALID,0,VALID,97.7322,VALID,0,VALID,19.3128,VALID,108,VALID,0.275,
2010-04-24, 02:32:04,VALID,917.183,VALID,0,VALID,97.7474,VALID,0,VALID,19.3323,VALID,108,VALID,0.245312,
2010-04-24, 02:33:04,VALID,917.196,VALID,0,VALID,97.7474,VALID,0,VALID,19.3338,VALID,108,VALID,0.276172,
2010-04-24, 02:34:04,VALID,917.184,VALID,0,VALID,97.7551,VALID,0,VALID,19.3143,VALID,108,VALID,0.205859,
2010-04-24, 02:35:04,VALID,917.201,VALID,0,VALID,97.7551,VALID,0,VALID,19.3338,VALID,108,VALID,0,
2010-04-24, 02:36:04,VALID,917.2,VALID,0,VALID,97.7551,VALID,0,VALID,19.3338,VALID,108,VALID,0,
2010-04-24, 02:37:04,VALID,917.224,VALID,0,VALID,97.7551,VALID,0,VALID,19.3128,VALID,108,VALID,0.319141,
2010-04-24, 02:38:04,VALID,917.201,VALID,0,VALID,97.7627,VALID,0,VALID,19.3518,VALID,108,VALID,0.278906,
2010-04-24, 02:39:04,VALID,917.183,VALID,0,VALID,97.7322,VALID,0,VALID,19.3908,VALID,108,VALID,0.165234,
2010-04-24, 02:40:04,VALID,917.185,VALID,0,VALID,97.7322,VALID,0,VALID,19.3923,VALID,108,VALID,0,
2010-04-24, 02:41:04,VALID,917.21,VALID,0,VALID,97.7474,VALID,0,VALID,19.3923,VALID,108,VALID,0.142188,
2010-04-24, 02:42:04,VALID,917.181,VALID,0,VALID,97.7474,VALID,0,VALID,19.3518,VALID,108,VALID,0.0316406,
2010-04-24, 02:43:04,VALID,917.153,VALID,0,VALID,97.7627,VALID,0,VALID,19.3728,VALID,108,VALID,0,
2010-04-24, 02:44:04,VALID,917.203,VALID,0,VALID,97.7627,VALID,0,VALID,19.3533,VALID,108,VALID,0,
2010-04-24, 02:45:04,VALID,917.203,VALID,0,VALID,97.7703,VALID,0,VALID,19.3533,VALID,108,VALID,0,
2010-04-24, 02:46:04,VALID,917.203,VALID,0,VALID,97.7551,VALID,0.107441,VALID,19.3713,VALID,108,VALID,0,
2010-04-24, 02:47:04,VALID,917.241,VALID,0,VALID,97.7551,VALID,0.107441,VALID,19.3908,VALID,108,VALID,0.144922,
2010-04-24, 02:48:04,VALID,917.216,VALID,0,VALID,97.7627,VALID,0.107441,VALID,19.3893,VALID,108,VALID,0.0523437,
2010-04-24, 02:49:04,VALID,917.201,VALID,0,VALID,97.7398,VALID,0.107441,VALID,19.3698,VALID,108,VALID,0.00664063,
2010-04-24, 02:50:04,VALID,917.216,VALID,0,VALID,97.7551,VALID,0.107441,VALID,19.3908,VALID,108,VALID,0.500391,
2010-04-24, 02:51:04,VALID,917.224,VALID,0,VALID,97.7627,VALID,0.107441,VALID,19.4103,VALID,108,VALID,0.249609,
2010-04-24, 02:52:04,VALID,917.242,VALID,0,VALID,97.7474,VALID,0.107441,VALID,19.3503,VALID,108,VALID,0.373828,
2010-04-24, 02:53:04,VALID,917.229,VALID,0,VALID,97.7856,VALID,0.107441,VALID,19.3308,VALID,108,VALID,0.300781,
2010-04-24, 02:54:04,VALID,917.255,VALID,0,VALID,97.7779,VALID,0.107441,VALID,19.3323,VALID,108,VALID,0.308594,
2010-04-24, 02:55:04,VALID,917.242,VALID,0,VALID,97.7627,VALID,0,VALID,19.2723,VALID,108,VALID,0.389453,
2010-04-24, 02:56:04,VALID,917.275,VALID,0,VALID,97.7551,VALID,0.107441,VALID,19.2933,VALID,108,VALID,0.373047,
2010-04-24, 02:57:04,VALID,917.278,VALID,0,VALID,97.7703,VALID,0,VALID,19.2933,VALID,108,VALID,0.326562,
2010-04-24, 02:58:04,VALID,917.283,VALID,0,VALID,97.7474,VALID,0,VALID,19.2918,VALID,108,VALID,0.167969,
2010-04-24, 02:59:04,VALID,917.28,VALID,0,VALID,97.7474,VALID,0.107441,VALID,19.3113,VALID,108,VALID,0,
2010-04-24, 03:00:04,VALID,917.309,VALID,0,VALID,97.7551,VALID,0.107441,VALID,19.3323,VALID,108,VALID,0,
2010-04-24, 03:01:04,VALID,917.3,VALID,0,VALID,97.7551,VALID,0,VALID,19.3323,VALID,108,VALID,0.342187,
2010-04-24, 03:02:04,VALID,917.288,VALID,0,VALID,97.7551,VALID,0,VALID,19.3518,VALID,108,VALID,0.288281,
2010-04-24, 03:03:04,VALID,917.306,VALID,0,VALID,97.7474,VALID,0,VALID,19.3533,VALID,108,VALID,0.240234,
2010-04-24, 03:04:04,VALID,917.326,VALID,0,VALID,97.7398,VALID,0,VALID,19.3338,VALID,108,VALID,0.412109,
2010-04-24, 03:05:04,VALID,917.304,VALID,0,VALID,97.7627,VALID,0,VALID,19.2948,VALID,108,VALID,0.598437,
2010-04-24, 03:06:04,VALID,917.317,VALID,0,VALID,97.7551,VALID,0,VALID,19.2738,VALID,108,VALID,0.404297,
2010-04-24, 03:07:04,VALID,917.31,VALID,0,VALID,97.7474,VALID,0,VALID,19.2933,VALID,108,VALID,0.461328,
2010-04-24, 03:08:04,VALID,917.305,VALID,0,VALID,97.7474,VALID,0,VALID,19.2933,VALID,108,VALID,0.303125,
2010-04-24, 03:09:04,VALID,917.324,VALID,0,VALID,97.7474,VALID,0,VALID,19.3143,VALID,108,VALID,0.00195313,
2010-04-24, 03:10:04,VALID,917.338,VALID,0,VALID,97.7551,VALID,0,VALID,19.2933,VALID,108,VALID,0,
2010-04-24, 03:11:04,VALID,917.315,VALID,0,VALID,97.7398,VALID,0,VALID,19.3128,VALID,108,VALID,0,
2010-04-24, 03:12:04,VALID,917.323,VALID,0,VALID,97.7551,VALID,0,VALID,19.3323,VALID,108,VALID,0,
2010-04-24, 03:13:04,VALID,917.339,VALID,0,VALID,97.7627,VALID,0,VALID,19.3533,VALID,108,VALID,0,
2010-04-24, 03:14:04,VALID,917.288,VALID,0,VALID,97.7551,VALID,0,VALID,19.3713,VALID,108,VALID,0.445703,
2010-04-24, 03:15:04,VALID,917.351,VALID,0,VALID,97.7474,VALID,0,VALID,19.3713,VALID,108,VALID,0.428906,
2010-04-24, 03:16:04,VALID,917.352,VALID,0,VALID,97.7627,VALID,0,VALID,19.3908,VALID,108,VALID,0.367188,
2010-04-24, 03:17:04,VALID,917.346,VALID,0,VALID,97.7703,VALID,0,VALID,19.4103,VALID,108,VALID,0.193359,
2010-04-24, 03:18:04,VALID,917.351,VALID,0,VALID,97.7474,VALID,0,VALID,19.4298,VALID,108,VALID,0,
2010-04-24, 03:19:04,VALID,917.346,VALID,0,VALID,97.7627,VALID,0,VALID,19.4298,VALID,108,VALID,0,
2010-04-24, 03:20:04,VALID,917.37,VALID,0,VALID,97.7551,VALID,0,VALID,19.4298,VALID,108,VALID,0,
2010-04-24, 03:21:04,VALID,917.396,VALID,0,VALID,97.7474,VALID,0.107441,VALID,19.4283,VALID,108,VALID,0,
2010-04-24, 03:22:04,VALID,917.414,VALID,0,VALID,97.7551,VALID,0,VALID,19.4688,VALID,108,VALID,0,
2010-04-24, 03:23:04,VALID,917.389,VALID,0,VALID,97.7627,VALID,0.107441,VALID,19.4493,VALID,108,VALID,0,
2010-04-24, 03:24:04,VALID,917.429,VALID,0,VALID,97.7627,VALID,0,VALID,19.4103,VALID,108,VALID,0,
2010-04-24, 03:25:04,VALID,917.413,VALID,0,VALID,97.7627,VALID,0,VALID,19.3908,VALID,108,VALID,0,
2010-04-24, 03:26:04,VALID,917.388,VALID,0,VALID,97.7627,VALID,0.107441,VALID,19.4103,VALID,108,VALID,0,
2010-04-24, 03:27:04,VALID,917.398,VALID,0,VALID,97.7627,VALID,0.107441,VALID,19.3893,VALID,108,VALID,0,
2010-04-24, 03:28:04,VALID,917.361,VALID,0,VALID,97.7627,VALID,0,VALID,19.4298,VALID,108,VALID,0,
2010-04-24, 03:29:04,VALID,917.388,VALID,0,VALID,97.7627,VALID,0,VALID,19.4103,VALID,108,VALID,0.0570313,
2010-04-24, 03:30:04,VALID,917.365,VALID,0,VALID,97.7703,VALID,0,VALID,19.4298,VALID,108,VALID,0.215625,
2010-04-24, 03:31:04,VALID,917.377,VALID,0,VALID,97.7779,VALID,0,VALID,19.4298,VALID,108,VALID,0.173828,
2010-04-24, 03:32:04,VALID,917.353,VALID,0,VALID,97.7703,VALID,0.107441,VALID,19.4298,VALID,108,VALID,0.0519531,
2010-04-24, 03:33:04,VALID,917.349,VALID,0,VALID,97.7551,VALID,0,VALID,19.4088,VALID,108,VALID,0.285547,
2010-04-24, 03:34:04,VALID,917.328,VALID,0,VALID,97.7551,VALID,0.107441,VALID,19.4283,VALID,108,VALID,0.426953,
2010-04-24, 03:35:04,VALID,917.317,VALID,0.2,VALID,97.7398,VALID,0,VALID,19.4493,VALID,108,VALID,0.572266,
2010-04-24, 03:36:04,VALID,917.31,VALID,0,VALID,97.7551,VALID,0.107441,VALID,19.4283,VALID,108,VALID,0.773828,
2010-04-24, 03:37:04,VALID,917.297,VALID,0,VALID,97.7551,VALID,0.107441,VALID,19.4088,VALID,108,VALID,0.814062,
2010-04-24, 03:38:04,VALID,917.293,VALID,0,VALID,97.7627,VALID,0,VALID,19.4088,VALID,108,VALID,0.659766,
2010-04-24, 03:39:04,VALID,917.298,VALID,0,VALID,97.7551,VALID,0.107441,VALID,19.3893,VALID,108,VALID,0.669922,
2010-04-24, 03:40:04,VALID,917.289,VALID,0,VALID,97.7474,VALID,0,VALID,19.3908,VALID,108,VALID,0.635156,
2010-04-24, 03:41:04,VALID,917.256,VALID,0,VALID,97.7398,VALID,0.107441,VALID,19.3698,VALID,108,VALID,0.554297,
2010-04-24, 03:42:04,VALID,917.264,VALID,0,VALID,97.7551,VALID,0.107441,VALID,19.3503,VALID,108,VALID,0.528125,
2010-04-24, 03:43:04,VALID,917.247,VALID,0,VALID,97.7474,VALID,0.107441,VALID,19.3698,VALID,108,VALID,0.703125,